This is the latest recevied weather packets stored in our database for station/object G1SCQ. If no packets are shown the sender has not sent any weather packets the latest 10 day(s).
| Time | Temp. | Humidity | Pressure | Rain* | Wind** | Luminosity | Snow |
|---|---|---|---|---|---|---|---|
| 1777718165 | 16.67° C | 68% | 1016.3 hPa | 0 mm | - | 556 W/m² | - |
| 1777717625 | 16.11° C | 69% | 1016.5 hPa | 0 mm | - | 542 W/m² | - |
| 1777717085 | 16.11° C | 70% | 1016.4 hPa | 0 mm | - | 529 W/m² | - |
| 1777716544 | 15.56° C | 72% | 1016.7 hPa | 0 mm | - | 518 W/m² | - |
| 1777716005 | 15.56° C | 70% | 1016.6 hPa | 0 mm | - | 457 W/m² | - |
| 1777715644 | 15.56° C | 70% | 1016.5 hPa | 0 mm | - | 499 W/m² | - |
| 1777715105 | 15.56° C | 71% | 1016.8 hPa | 0 mm | - | 449 W/m² | - |
| 1777714564 | 15.56° C | 72% | 1016.7 hPa | 0 mm | - | 394 W/m² | - |
| 1777714025 | 15° C | 74% | 1016.7 hPa | 0 mm | - | 351 W/m² | - |
| 1777713484 | 14.44° C | 76% | 1016.5 hPa | 0 mm | - | 365 W/m² | - |
| 1777712944 | 14.44° C | 77% | 1016.8 hPa | 0 mm | - | 285 W/m² | - |
| 1777712404 | 13.89° C | 78% | 1016.8 hPa | 0 mm | - | 310 W/m² | - |
| 1777712044 | 13.89° C | 80% | 1016.9 hPa | 0 mm | - | 253 W/m² | - |
| 1777711504 | 13.33° C | 80% | 1016.8 hPa | 0 mm | - | 241 W/m² | - |
| 1777710964 | 13.89° C | 81% | 1017.1 hPa | 0 mm | - | 253 W/m² | - |
| 1777710424 | 13.89° C | 81% | 1016.8 hPa | 0 mm | - | 210 W/m² | - |
| 1777709884 | 13.89° C | 84% | 1016.9 hPa | 0 mm | - | 247 W/m² | - |
| 1777709344 | 13.33° C | 85% | 1017.2 hPa | 0 mm | - | 165 W/m² | - |
| 1777708804 | 12.78° C | 89% | 1017 hPa | 0 mm | - | 127 W/m² | - |
| 1777708444 | 12.78° C | 89% | 1016.7 hPa | 0 mm | - | 109 W/m² | - |
| 1777707904 | 12.22° C | 90% | 1017.1 hPa | 0 mm | - | 94 W/m² | - |
| 1777707364 | 12.78° C | 91% | 1016.7 hPa | 0 mm | - | 82 W/m² | - |
| 1777706824 | 12.78° C | 91% | 1016.8 hPa | 0 mm | - | 78 W/m² | - |
| 1777706284 | 12.22° C | 92% | 1017 hPa | 0 mm | - | 80 W/m² | - |
| 1777705744 | 12.22° C | 93% | 1016.8 hPa | 0 mm | - | 93 W/m² | - |
* Rain latest hour (hover to see other rain measurements)
** Current wind speed in m/s (hover to see current wind gust speed)